KLM125 EDDH-EHAM

Flight info

Callsign KLM125
Flight time 0h 46m
Altitude 30000
Route WSN5C/05 WSN N125 BLUFA
Aircraft A20N/M-SDE2E3FGHIRWXY/LB1

Departure

Time 2026-05-07 12:12
Airport Hamburg Helmut Schmidt Airport (EDDH)

Arrival

Time 2026-05-07 12:59
Airport Amsterdam Airport Schiphol (EHAM)
Time Latitude Longitude Altitude Speed Heading
2026-05-07 11:42 53.63419 10.00343 49 ft 0 kts 99°
2026-05-07 12:00 53.63422 10.00308 49 ft 4 kts 99°
2026-05-07 12:00 53.63425 10.00279 49 ft 4 kts 103°
2026-05-07 12:00 53.63435 10.00239 47 ft 4 kts 136°
2026-05-07 12:00 53.63457 10.00219 48 ft 3 kts 176°
2026-05-07 12:01 53.63465 10.00218 47 ft 0 kts 178°
2026-05-07 12:04 53.63459 10.00219 48 ft 3 kts 178°
2026-05-07 12:04 53.63408 10.00223 47 ft 11 kts 177°
2026-05-07 12:05 53.63307 10.00235 49 ft 18 kts 176°
2026-05-07 12:05 53.63170 10.00252 49 ft 21 kts 175°
2026-05-07 12:05 53.63031 10.00222 46 ft 20 kts 214°
2026-05-07 12:05 53.62911 10.00093 49 ft 20 kts 212°
2026-05-07 12:06 53.62860 10.00025 49 ft 0 kts 220°
2026-05-07 12:06 53.62833 9.99992 48 ft 8 kts 211°
2026-05-07 12:06 53.62829 9.99989 48 ft 0 kts 211°
2026-05-07 12:07 53.62827 9.99987 49 ft 2 kts 212°
2026-05-07 12:07 53.62805 9.99963 48 ft 6 kts 212°
2026-05-07 12:07 53.62747 9.99907 51 ft 14 kts 209°
2026-05-07 12:08 53.62648 9.99781 50 ft 22 kts 243°
2026-05-07 12:08 53.62611 9.99501 49 ft 27 kts 259°
2026-05-07 12:08 53.62573 9.99163 48 ft 32 kts 260°
2026-05-07 12:08 53.62533 9.98771 46 ft 36 kts 259°
2026-05-07 12:09 53.62484 9.98383 45 ft 18 kts 258°
2026-05-07 12:09 53.62467 9.98242 45 ft 12 kts 258°
2026-05-07 12:09 53.62461 9.98194 42 ft 0 kts 258°
2026-05-07 12:10 53.62454 9.98163 45 ft 7 kts 246°
2026-05-07 12:10 53.62408 9.98050 44 ft 17 kts 232°
2026-05-07 12:10 53.62315 9.97859 44 ft 25 kts 229°
2026-05-07 12:10 53.62196 9.97600 43 ft 28 kts 245°
2026-05-07 12:11 53.62228 9.97400 44 ft 8 kts 327°
2026-05-07 12:11 53.62274 9.97358 45 ft 7 kts 342°
2026-05-07 12:11 53.62329 9.97380 46 ft 9 kts 33°
2026-05-07 12:11 53.62373 9.97473 45 ft 26 kts 50°
2026-05-07 12:12 53.62641 9.98025 46 ft 94 kts 50°
2026-05-07 12:12 53.63181 9.99111 96 ft 142 kts 51°
2026-05-07 12:12 53.63825 10.00403 627 ft 149 kts 51°
2026-05-07 12:12 53.64505 10.01774 1364 ft 155 kts 51°
2026-05-07 12:13 53.65252 10.03292 1773 ft 187 kts 51°
2026-05-07 12:13 53.66141 10.05101 2389 ft 210 kts 51°
2026-05-07 12:13 53.67073 10.07008 3494 ft 210 kts 52°
2026-05-07 12:13 53.68022 10.08868 4387 ft 209 kts 46°
2026-05-07 12:14 53.69250 10.10179 4924 ft 215 kts 19°
2026-05-07 12:14 53.70774 10.10196 5651 ft 232 kts 347°
2026-05-07 12:14 53.72202 10.08633 6116 ft 264 kts 311°
2026-05-07 12:14 53.73167 10.05889 6831 ft 277 kts 298°
2026-05-07 12:15 53.74001 10.02929 7698 ft 284 kts 297°
2026-05-07 12:15 53.74748 9.99815 8693 ft 285 kts 285°
2026-05-07 12:15 53.74901 9.96505 9817 ft 285 kts 262°
2026-05-07 12:15 53.74337 9.93245 10564 ft 297 kts 249°
2026-05-07 12:16 53.73498 9.89897 10931 ft 322 kts 246°
2026-05-07 12:16 53.72558 9.86332 11449 ft 339 kts 246°
2026-05-07 12:16 53.71608 9.82699 12272 ft 345 kts 246°
2026-05-07 12:16 53.70641 9.78961 13218 ft 349 kts 247°
2026-05-07 12:17 53.69670 9.75181 14156 ft 352 kts 247°
2026-05-07 12:17 53.68692 9.71361 14983 ft 356 kts 247°
2026-05-07 12:17 53.67703 9.67492 15811 ft 360 kts 247°
2026-05-07 12:17 53.66706 9.63599 16680 ft 362 kts 247°
2026-05-07 12:18 53.65689 9.59706 17546 ft 364 kts 245°
2026-05-07 12:18 53.64414 9.55993 18341 ft 369 kts 237°
2026-05-07 12:18 53.62935 9.52428 18963 ft 375 kts 235°
2026-05-07 12:18 53.61398 9.48861 19664 ft 377 kts 234°
2026-05-07 12:19 53.59850 9.45284 20370 ft 379 kts 234°
2026-05-07 12:19 53.58308 9.41719 21005 ft 383 kts 234°
2026-05-07 12:19 53.56729 9.38063 21616 ft 388 kts 234°
2026-05-07 12:19 53.55135 9.34371 22304 ft 391 kts 234°
2026-05-07 12:20 53.53532 9.30661 22968 ft 393 kts 234°
2026-05-07 12:20 53.51915 9.26922 23535 ft 398 kts 234°
2026-05-07 12:20 53.50276 9.23138 24041 ft 401 kts 234°
2026-05-07 12:20 53.48630 9.19342 24535 ft 404 kts 234°
2026-05-07 12:21 53.46968 9.15516 25004 ft 407 kts 234°
2026-05-07 12:21 53.45306 9.11693 25412 ft 411 kts 234°
2026-05-07 12:21 53.43613 9.07807 25909 ft 413 kts 234°
2026-05-07 12:21 53.41909 9.03900 26383 ft 416 kts 234°
2026-05-07 12:22 53.40195 8.99978 26772 ft 420 kts 234°
2026-05-07 12:22 53.38456 8.96004 27209 ft 423 kts 234°
2026-05-07 12:22 53.36712 8.92022 27749 ft 424 kts 234°
2026-05-07 12:22 53.35082 8.87876 28129 ft 429 kts 240°
2026-05-07 12:23 53.33790 8.83359 28533 ft 432 kts 247°
2026-05-07 12:23 53.32664 8.78681 28998 ft 433 kts 249°
2026-05-07 12:23 53.31621 8.73998 29366 ft 437 kts 250°
2026-05-07 12:23 53.30582 8.69181 29695 ft 441 kts 250°
2026-05-07 12:24 53.29549 8.64350 30030 ft 443 kts 250°
2026-05-07 12:24 53.27468 8.54645 30070 ft 442 kts 250°
2026-05-07 12:25 53.25454 8.44951 30071 ft 441 kts 252°
2026-05-07 12:25 53.23629 8.35233 30068 ft 442 kts 252°
2026-05-07 12:26 53.21812 8.25446 30071 ft 441 kts 252°
2026-05-07 12:26 53.19967 8.15662 30069 ft 441 kts 252°
2026-05-07 12:27 53.18119 8.05915 30067 ft 441 kts 252°
2026-05-07 12:27 53.16277 7.96161 30065 ft 440 kts 252°
2026-05-07 12:28 53.14433 7.86431 30068 ft 441 kts 252°
2026-05-07 12:28 53.12590 7.76765 30069 ft 440 kts 252°
2026-05-07 12:29 53.10725 7.67036 30057 ft 441 kts 252°
2026-05-07 12:29 53.08843 7.57286 30058 ft 445 kts 252°
2026-05-07 12:30 53.06933 7.47453 30055 ft 447 kts 252°
2026-05-07 12:30 53.05015 7.37629 29691 ft 446 kts 252°
2026-05-07 12:30 53.04059 7.32747 29408 ft 444 kts 252°
2026-05-07 12:31 53.03105 7.27888 29126 ft 442 kts 252°
2026-05-07 12:31 53.02151 7.23046 28835 ft 438 kts 251°
2026-05-07 12:31 53.01197 7.18275 28558 ft 434 kts 251°
2026-05-07 12:31 53.00236 7.13534 28285 ft 431 kts 251°
2026-05-07 12:32 52.99288 7.08878 28021 ft 431 kts 251°
2026-05-07 12:32 52.98328 7.04168 27745 ft 431 kts 251°
2026-05-07 12:32 52.97365 6.99456 27487 ft 429 kts 251°
2026-05-07 12:32 52.96407 6.94777 27233 ft 428 kts 251°
2026-05-07 12:33 52.94494 6.85459 26703 ft 425 kts 251°
2026-05-07 12:33 52.93544 6.80849 26444 ft 422 kts 251°
2026-05-07 12:33 52.92593 6.76247 26188 ft 421 kts 251°
2026-05-07 12:34 52.91645 6.71668 25936 ft 420 kts 251°
2026-05-07 12:34 52.90696 6.67094 25686 ft 417 kts 251°
2026-05-07 12:34 52.89752 6.62554 25432 ft 416 kts 251°
2026-05-07 12:34 52.88808 6.58024 25186 ft 415 kts 251°
2026-05-07 12:35 52.87871 6.53539 24769 ft 410 kts 251°
2026-05-07 12:35 52.86938 6.49083 24150 ft 410 kts 251°
2026-05-07 12:35 52.86001 6.44617 23492 ft 410 kts 251°
2026-05-07 12:35 52.85066 6.40170 22775 ft 409 kts 251°
2026-05-07 12:36 52.84119 6.35745 22161 ft 407 kts 249°
2026-05-07 12:36 52.82857 6.31595 21537 ft 403 kts 238°
2026-05-07 12:36 52.81318 6.27742 20918 ft 400 kts 236°
2026-05-07 12:36 52.79748 6.24018 20292 ft 398 kts 235°
2026-05-07 12:37 52.78162 6.20281 19654 ft 396 kts 235°
2026-05-07 12:37 52.76589 6.16571 19008 ft 395 kts 235°
2026-05-07 12:37 52.75016 6.12859 18365 ft 393 kts 235°
2026-05-07 12:37 52.73448 6.09159 17653 ft 391 kts 235°
2026-05-07 12:38 52.71896 6.05496 17012 ft 388 kts 235°
2026-05-07 12:38 52.70360 6.01875 16406 ft 384 kts 236°
2026-05-07 12:38 52.68836 5.98284 15783 ft 381 kts 235°
2026-05-07 12:38 52.67320 5.94717 15152 ft 378 kts 235°
2026-05-07 12:39 52.65814 5.91181 14540 ft 376 kts 235°
2026-05-07 12:39 52.64318 5.87670 13925 ft 373 kts 235°
2026-05-07 12:39 52.62828 5.84181 13256 ft 371 kts 235°
2026-05-07 12:39 52.61353 5.80728 12624 ft 367 kts 235°
2026-05-07 12:40 52.59894 5.77318 12008 ft 362 kts 235°
2026-05-07 12:40 52.58463 5.73980 11439 ft 358 kts 235°
2026-05-07 12:40 52.57033 5.70647 11241 ft 343 kts 235°
2026-05-07 12:40 52.55691 5.67524 11170 ft 326 kts 235°
2026-05-07 12:41 52.54442 5.64500 11061 ft 319 kts 238°
2026-05-07 12:41 52.53225 5.61332 10825 ft 334 kts 238°
2026-05-07 12:41 52.51983 5.58093 10570 ft 333 kts 238°
2026-05-07 12:41 52.50763 5.54886 10327 ft 332 kts 238°
2026-05-07 12:42 52.49558 5.51702 10007 ft 332 kts 238°
2026-05-07 12:42 52.48367 5.48543 9758 ft 319 kts 238°
2026-05-07 12:42 52.47224 5.45504 9528 ft 306 kts 238°
2026-05-07 12:42 52.46126 5.42581 9281 ft 296 kts 238°
2026-05-07 12:43 52.45060 5.39752 9021 ft 286 kts 238°
2026-05-07 12:43 52.44026 5.37010 8752 ft 279 kts 238°
2026-05-07 12:43 52.43013 5.34328 8451 ft 276 kts 238°
2026-05-07 12:43 52.42018 5.31698 8058 ft 274 kts 238°
2026-05-07 12:44 52.41013 5.29045 7637 ft 273 kts 238°
2026-05-07 12:44 52.40015 5.26413 7214 ft 272 kts 238°
2026-05-07 12:44 52.39012 5.23772 6785 ft 272 kts 238°
2026-05-07 12:44 52.38011 5.21136 6388 ft 271 kts 238°
2026-05-07 12:45 52.37027 5.18547 5976 ft 270 kts 238°
2026-05-07 12:45 52.36039 5.15953 5550 ft 269 kts 238°
2026-05-07 12:45 52.35049 5.13352 5140 ft 268 kts 238°
2026-05-07 12:45 52.34147 5.10695 4713 ft 267 kts 248°
2026-05-07 12:46 52.33347 5.07961 4298 ft 267 kts 238°
2026-05-07 12:46 52.32279 5.05493 3902 ft 265 kts 233°
2026-05-07 12:46 52.31154 5.03122 3630 ft 259 kts 233°
2026-05-07 12:46 52.30063 5.00856 3500 ft 248 kts 232°
2026-05-07 12:47 52.29015 4.98683 3399 ft 238 kts 232°
2026-05-07 12:47 52.28022 4.96616 3331 ft 222 kts 234°
2026-05-07 12:47 52.27173 4.94618 3210 ft 207 kts 237°
2026-05-07 12:47 52.26387 4.92697 2992 ft 200 kts 237°
2026-05-07 12:48 52.25880 4.91439 2815 ft 201 kts 237°
2026-05-07 12:48 52.24883 4.88922 2380 ft 198 kts 237°
2026-05-07 12:48 52.24136 4.87032 2081 ft 198 kts 237°
2026-05-07 12:48 52.23398 4.85187 2004 ft 193 kts 237°
2026-05-07 12:49 52.22908 4.83967 2000 ft 194 kts 237°
2026-05-07 12:49 52.22166 4.82130 1994 ft 195 kts 237°
2026-05-07 12:49 52.21422 4.80299 1995 ft 188 kts 237°
2026-05-07 12:49 52.20717 4.78559 2007 ft 181 kts 237°
2026-05-07 12:50 52.20031 4.76853 1997 ft 179 kts 238°
2026-05-07 12:50 52.19347 4.75151 2000 ft 181 kts 238°
2026-05-07 12:50 52.18640 4.73408 1998 ft 185 kts 238°
2026-05-07 12:50 52.17930 4.71660 2003 ft 185 kts 237°
2026-05-07 12:51 52.17227 4.69919 1991 ft 183 kts 237°
2026-05-07 12:51 52.16527 4.68178 1988 ft 184 kts 237°
2026-05-07 12:51 52.15823 4.66433 1993 ft 185 kts 237°
2026-05-07 12:51 52.15119 4.64685 1988 ft 185 kts 238°
2026-05-07 12:52 52.14414 4.62938 1999 ft 185 kts 237°
2026-05-07 12:52 52.13711 4.61182 1984 ft 185 kts 242°
2026-05-07 12:52 52.13482 4.59186 1993 ft 181 kts 282°
2026-05-07 12:52 52.14092 4.57480 2001 ft 176 kts 320°
2026-05-07 12:53 52.15069 4.56352 1993 ft 174 kts 330°
2026-05-07 12:53 52.16121 4.55358 1995 ft 175 kts 332°
2026-05-07 12:53 52.17188 4.54388 1991 ft 176 kts 333°
2026-05-07 12:53 52.18290 4.53539 1977 ft 175 kts 349°
2026-05-07 12:54 52.19475 4.53792 1995 ft 173 kts 23°
2026-05-07 12:54 52.20538 4.54710 1990 ft 173 kts 31°
2026-05-07 12:54 52.21540 4.55751 2000 ft 166 kts 36°
2026-05-07 12:54 52.22342 4.56936 2001 ft 148 kts 49°
2026-05-07 12:55 52.22944 4.58261 2006 ft 143 kts 56°
2026-05-07 12:55 52.23470 4.59598 1984 ft 136 kts 57°
2026-05-07 12:55 52.23964 4.60885 1874 ft 132 kts 56°
2026-05-07 12:55 52.24453 4.62148 1676 ft 131 kts 56°
2026-05-07 12:56 52.24939 4.63406 1482 ft 131 kts 56°
2026-05-07 12:56 52.25424 4.64667 1305 ft 131 kts 56°
2026-05-07 12:56 52.25907 4.65921 1121 ft 130 kts 56°
2026-05-07 12:56 52.26389 4.67175 947 ft 131 kts 53°
2026-05-07 12:57 52.26864 4.68408 773 ft 130 kts 55°
2026-05-07 12:57 52.27341 4.69649 624 ft 128 kts 57°
2026-05-07 12:57 52.27810 4.70871 436 ft 126 kts 58°
2026-05-07 12:57 52.28278 4.72088 275 ft 126 kts 58°
2026-05-07 12:58 52.28735 4.73303 112 ft 125 kts 55°
2026-05-07 12:58 52.29200 4.74500 5 ft 124 kts 58°
2026-05-07 12:58 52.29633 4.75626 2 ft 112 kts 57°
2026-05-07 12:58 52.29989 4.76486 0 ft 56 kts 39°
2026-05-07 12:59 52.30181 4.76670 1 ft 10 kts 28°